Flag for Portugal Weather past 2 weeks in Funchal, Madeira, Portugal

Now
61 °F

Partly cloudy.


Feels Like: 61 °F
Forecast: N/A
Wind: 9 mph from North

Location: Aeroporto Da Madeira

Current Time: Dec 21, 2014 at 9:08:32 PM

Latest Report: Dec 21, 2014 at 8:30 PM


Visibility: N/A

Pressure: 30.36 "Hg

Humidity: 68%

Dew point: 50 °F

Location of FunchalLocation

Historic Weather in Funchal — Graph

°F

Funchal temperature yesterday

Maximum temperature yesterday: 61 °F (at 11:00 AM)
Minimum temperature yesterday: 59 °F (at 12:00 AM)
Average temperature yesterday: 59 °F

Past Weeks' High & Low Weather Summary

 TemperatureHumidityPressure
High68 °F (Dec 12, 10:30 AM)88% (Dec 15, 8:30 AM)30.51 "Hg (Dec 15, 8:30 AM)
Low54 °F (Dec 13, 7:30 AM)45% (Dec 13, 12:00 PM)30.04 "Hg (Dec 13, 4:30 AM)
Average60 °F70%30.37 "Hg
* Reported Dec 6 8:00 PM — Dec 21 8:00 PM, Funchal, Weather by CustomWeather, © 2014

Note: Actual official high and low records may vary slightly from our data, if they occured in-between our weather recording intervals... More about our weather records

Advertising

Funchal weather history for previous 24 hours

 ConditionsComfort  
Time TempWeatherWind HumidityBarometerVisibility
8:00 PM
Dec 21
61 °FPartly cloudy.6 mph63%30.36 "HgN/A
7:30 PM61 °FPartly cloudy.7 mph68%30.36 "HgN/A
7:00 PM61 °FBroken clouds.6 mph68%30.36 "HgN/A
6:30 PM61 °FBroken clouds.7 mph68%30.33 "HgN/A
6:00 PM61 °FBroken clouds.12 mph72%30.33 "HgN/A
5:30 PM61 °FBroken clouds.9 mph72%30.36 "HgN/A
5:00 PM61 °FBroken clouds.6 mph72%30.36 "HgN/A
4:30 PM63 °FBroken clouds.10 mph68%30.33 "HgN/A
4:00 PM63 °FBroken clouds.8 mph68%30.33 "HgN/A
3:30 PM63 °FBroken clouds.9 mph68%30.33 "HgN/A
3:00 PM63 °FBroken clouds.9 mph68%30.36 "HgN/A
2:30 PM63 °FBroken clouds.10 mph68%30.36 "HgN/A
2:00 PM63 °FBroken clouds.8 mph68%30.36 "HgN/A
1:30 PM63 °FBroken clouds.7 mph64%30.39 "HgN/A
1:00 PM63 °FBroken clouds.12 mph68%30.39 "HgN/A
12:30 PM63 °FBroken clouds.9 mph64%30.42 "HgN/A
12:00 PM61 °FBroken clouds.9 mph68%30.42 "HgN/A
11:30 AM63 °FBroken clouds.12 mph64%30.42 "HgN/A
11:00 AM61 °FBroken clouds.10 mph68%30.42 "HgN/A
10:30 AM61 °FBroken clouds.8 mph63%30.42 "HgN/A
10:00 AM61 °FBroken clouds.10 mph68%30.42 "HgN/A
9:30 AM59 °FBroken clouds.7 mph72%30.42 "HgN/A
9:00 AM61 °FPartly cloudy.7 mph63%30.42 "HgN/A
8:30 AM59 °FPartly cloudy.10 mph68%30.42 "HgN/A
8:00 AM59 °FPassing clouds.10 mph72%30.39 "HgN/A
7:30 AM59 °FPassing clouds.10 mph72%30.39 "HgN/A
7:00 AM59 °FPassing clouds.10 mph72%30.39 "HgN/A
6:30 AM59 °FPassing clouds.12 mph72%30.39 "HgN/A
6:00 AM61 °FPassing clouds.8 mph68%30.39 "HgN/A
5:30 AM59 °FPassing clouds.9 mph72%30.39 "HgN/A
5:00 AM59 °FPassing clouds.12 mph72%30.39 "HgN/A
4:30 AM61 °FPassing clouds.9 mph68%30.39 "HgN/A
4:00 AM61 °FPassing clouds.10 mph68%30.42 "HgN/A
3:30 AM61 °FPassing clouds.10 mph68%30.42 "HgN/A
3:00 AM61 °FPassing clouds.10 mph68%30.42 "HgN/A
2:30 AM61 °FPassing clouds.8 mph68%30.42 "HgN/A
2:00 AM61 °FPassing clouds.9 mph68%30.42 "HgN/A
1:30 AM61 °FPassing clouds.10 mph63%30.42 "HgN/A
1:00 AM61 °FPassing clouds.9 mph68%30.45 "HgN/A
12:30 AM59 °FPassing clouds.10 mph77%30.45 "HgN/A
12:00 AM59 °FPassing clouds.12 mph72%30.45 "HgN/A
11:30 PM
Dec 20
59 °FPartly cloudy.9 mph72%30.45 "HgN/A
11:00 PM59 °FPartly cloudy.12 mph72%30.45 "HgN/A
10:30 PM59 °FPartly cloudy.10 mph77%30.45 "HgN/A
10:00 PM59 °FPartly cloudy.8 mph77%30.45 "HgN/A
9:30 PM59 °FPartly cloudy.9 mph77%30.45 "HgN/A
9:00 PM59 °FPartly cloudy.10 mph77%30.45 "HgN/A
Weather by CustomWeather, © 2014

See weather overviewHow to use our weather pages